Terug naar catalogus

ASTROSAT

ActiefWetenschapLEO
NORAD 40930·PAYLOAD·🇮🇳 India

Gelanceerd Sep 28, 2015 vanaf Satish Dhawan Space Centre

Loading…

Volgende Passages (komende 24 uur)

TLE

VersSource: Space-Track

Epoch: Sep 14, 2026, 13:27 UTC

1 40930U 15052A   26257.56100690  .00001440  00000-0  93092-4 0  9994
2 40930   5.9963 231.9715 0008247 233.9343 126.0020 14.82641579593113

Volg ASTROSAT in realtime met AllMySat

Download on the App Store